TimeEDT,TemperatureF,Dew PointF,Humidity,Sea Level PressureIn,VisibilityMPH,Wind Direction,Wind SpeedMPH,Gust SpeedMPH,PrecipitationIn,Events,Conditions,WindDirDegrees,DateUTC
12:15 AM,68.0,64.4,88,30.04,4.0,SE,6.9,-,N/A,,Overcast,130,2013-07-13 04:15:00
12:35 AM,68.0,64.4,88,30.04,5.0,SSE,3.5,-,N/A,,Overcast,150,2013-07-13 04:35:00
12:55 AM,68.0,64.4,88,30.05,3.0,SSE,4.6,-,N/A,,Overcast,150,2013-07-13 04:55:00
1:15 AM,68.0,66.2,94,30.06,4.0,SSE,4.6,-,N/A,,Overcast,150,2013-07-13 05:15:00
1:35 AM,68.0,66.2,94,30.06,0.5,SE,5.8,-,N/A,,Overcast,140,2013-07-13 05:35:00
1:55 AM,68.0,66.2,94,30.05,1.0,SE,5.8,-,N/A,,Overcast,140,2013-07-13 05:55:00
2:15 AM,66.2,64.4,94,30.06,2.0,SE,6.9,-,N/A,,Overcast,130,2013-07-13 06:15:00
2:35 AM,66.2,64.4,94,30.06,3.0,SE,5.8,-,N/A,,Overcast,130,2013-07-13 06:35:00
2:55 AM,68.0,64.4,88,30.07,3.0,Calm,Calm,-,N/A,,Overcast,0,2013-07-13 06:55:00
3:15 AM,68.0,64.4,88,30.07,1.5,ESE,3.5,-,N/A,,Overcast,120,2013-07-13 07:15:00
3:35 AM,68.0,64.4,88,30.08,0.2,Calm,Calm,-,N/A,,Overcast,0,2013-07-13 07:35:00
3:55 AM,68.0,64.4,88,30.08,0.2,Calm,Calm,-,N/A,,Overcast,0,2013-07-13 07:55:00
4:15 AM,68.0,66.2,94,30.08,0.2,Calm,Calm,-,N/A,,Overcast,0,2013-07-13 08:15:00
4:35 AM,68.0,64.4,88,30.09,0.2,SE,3.5,-,N/A,,Overcast,130,2013-07-13 08:35:00
4:55 AM,68.0,64.4,88,30.10,0.2,SSE,4.6,-,N/A,,Overcast,150,2013-07-13 08:55:00
5:15 AM,68.0,66.2,94,30.11,0.2,Calm,Calm,-,N/A,,Overcast,0,2013-07-13 09:15:00
5:35 AM,68.0,66.2,94,30.11,0.2,Calm,Calm,-,N/A,,Overcast,0,2013-07-13 09:35:00
5:55 AM,68.0,66.2,94,30.12,0.2,Calm,Calm,-,N/A,,Overcast,0,2013-07-13 09:55:00
6:15 AM,68.0,66.2,94,30.13,0.2,SE,3.5,-,N/A,,Overcast,130,2013-07-13 10:15:00
6:35 AM,69.8,66.2,88,30.13,5.0,SE,3.5,-,N/A,,Overcast,140,2013-07-13 10:35:00
6:55 AM,69.8,66.2,88,30.13,4.0,SE,3.5,-,N/A,,Overcast,130,2013-07-13 10:55:00
7:15 AM,69.8,68.0,94,30.15,0.5,ESE,4.6,-,N/A,,Overcast,120,2013-07-13 11:15:00
7:35 AM,71.6,69.8,94,30.15,0.2,SE,5.8,-,N/A,,Overcast,130,2013-07-13 11:35:00
7:55 AM,71.6,69.8,94,30.16,0.5,SE,4.6,-,N/A,,Overcast,140,2013-07-13 11:55:00
8:15 AM,71.6,69.8,94,30.17,1.2,ESE,5.8,-,N/A,,Overcast,120,2013-07-13 12:15:00
8:35 AM,73.4,71.6,94,30.18,8.0,SE,5.8,-,N/A,,Overcast,130,2013-07-13 12:35:00
8:55 AM,75.2,71.6,89,30.18,10.0,SE,6.9,-,N/A,,Mostly Cloudy,130,2013-07-13 12:55:00
9:15 AM,75.2,73.4,94,30.19,10.0,ESE,6.9,-,N/A,,Mostly Cloudy,110,2013-07-13 13:15:00
9:35 AM,77.0,73.4,89,30.19,10.0,ESE,5.8,-,N/A,,Overcast,110,2013-07-13 13:35:00
9:55 AM,75.2,73.4,94,30.19,10.0,East,6.9,-,N/A,,Overcast,100,2013-07-13 13:55:00
10:15 AM,77.0,73.4,89,30.20,10.0,ESE,6.9,-,N/A,,Overcast,110,2013-07-13 14:15:00
10:35 AM,78.8,73.4,83,30.20,10.0,SSE,9.2,-,N/A,,Overcast,150,2013-07-13 14:35:00
10:55 AM,80.6,73.4,79,30.21,10.0,SE,9.2,-,N/A,,Overcast,140,2013-07-13 14:55:00
11:15 AM,80.6,73.4,79,30.21,10.0,SSE,9.2,-,N/A,,Overcast,150,2013-07-13 15:15:00
11:35 AM,80.6,73.4,79,30.21,10.0,SSE,10.4,-,N/A,,Overcast,150,2013-07-13 15:35:00
11:55 AM,80.6,75.2,84,30.22,10.0,SSE,10.4,17.3,N/A,,Mostly Cloudy,160,2013-07-13 15:55:00
12:15 PM,82.4,73.4,74,30.22,10.0,South,10.4,-,N/A,,Mostly Cloudy,170,2013-07-13 16:15:00
12:35 PM,82.4,75.2,79,30.22,10.0,SE,10.4,-,N/A,,Mostly Cloudy,140,2013-07-13 16:35:00
12:55 PM,82.4,75.2,79,30.22,10.0,SE,10.4,-,N/A,,Mostly Cloudy,130,2013-07-13 16:55:00
1:15 PM,82.4,73.4,74,30.21,10.0,ESE,8.1,-,N/A,,Partly Cloudy,120,2013-07-13 17:15:00
1:35 PM,82.4,73.4,74,30.21,10.0,SE,10.4,-,N/A,,Partly Cloudy,130,2013-07-13 17:35:00
1:55 PM,82.4,73.4,74,30.21,10.0,South,12.7,18.4,N/A,,Scattered Clouds,170,2013-07-13 17:55:00
2:15 PM,82.4,73.4,74,30.21,10.0,SSE,15.0,23.0,N/A,,Mostly Cloudy,160,2013-07-13 18:15:00
2:35 PM,82.4,73.4,74,30.21,10.0,SSE,9.2,21.9,N/A,,Mostly Cloudy,160,2013-07-13 18:35:00
2:55 PM,82.4,73.4,74,30.21,10.0,SSE,10.4,-,N/A,,Partly Cloudy,160,2013-07-13 18:55:00
3:15 PM,82.4,73.4,74,30.21,10.0,South,12.7,-,N/A,,Clear,180,2013-07-13 19:15:00
3:35 PM,82.4,73.4,74,30.21,10.0,South,12.7,19.6,N/A,,Clear,180,2013-07-13 19:35:00
3:55 PM,82.4,73.4,74,30.21,10.0,South,15.0,-,N/A,,Clear,180,2013-07-13 19:55:00
4:15 PM,82.4,73.4,74,30.22,10.0,SSE,13.8,19.6,N/A,,Clear,160,2013-07-13 20:15:00
4:35 PM,82.4,71.6,70,30.22,10.0,South,16.1,-,N/A,,Clear,170,2013-07-13 20:35:00
4:55 PM,82.4,71.6,70,30.22,10.0,South,13.8,-,N/A,,Clear,170,2013-07-13 20:55:00
5:15 PM,82.4,71.6,70,30.22,10.0,South,12.7,-,N/A,,Clear,170,2013-07-13 21:15:00
5:35 PM,82.4,71.6,70,30.22,10.0,South,13.8,21.9,N/A,,Clear,180,2013-07-13 21:35:00
5:55 PM,80.6,71.6,74,30.23,10.0,South,13.8,-,N/A,,Clear,180,2013-07-13 21:55:00
6:15 PM,80.6,71.6,74,30.23,10.0,South,13.8,17.3,N/A,,Scattered Clouds,180,2013-07-13 22:15:00
6:35 PM,80.6,71.6,74,30.24,10.0,South,11.5,-,N/A,,Scattered Clouds,180,2013-07-13 22:35:00
6:55 PM,80.6,71.6,74,30.25,10.0,South,10.4,16.1,N/A,,Partly Cloudy,180,2013-07-13 22:55:00
7:15 PM,80.6,71.6,74,30.25,10.0,South,10.4,-,N/A,,Clear,170,2013-07-13 23:15:00
7:35 PM,78.8,71.6,78,30.26,10.0,South,11.5,-,N/A,,Clear,170,2013-07-13 23:35:00
7:55 PM,77.0,71.6,83,30.26,10.0,South,9.2,16.1,N/A,,Clear,170,2013-07-13 23:55:00
8:15 PM,77.0,71.6,83,30.26,10.0,South,10.4,-,N/A,,Clear,170,2013-07-14 00:15:00
8:35 PM,77.0,71.6,83,30.25,10.0,South,12.7,-,N/A,,Clear,170,2013-07-14 00:35:00
8:55 PM,75.2,71.6,89,30.26,10.0,South,9.2,-,N/A,,Clear,170,2013-07-14 00:55:00
9:15 PM,75.2,71.6,89,30.28,10.0,SSE,8.1,-,N/A,,Clear,160,2013-07-14 01:15:00
9:35 PM,75.2,71.6,89,30.29,9.0,SSE,6.9,-,N/A,,Clear,160,2013-07-14 01:35:00
9:55 PM,75.2,71.6,89,30.30,8.0,SSE,8.1,-,N/A,,Clear,160,2013-07-14 01:55:00
10:15 PM,73.4,71.6,94,30.29,7.0,SSE,5.8,-,N/A,,Clear,160,2013-07-14 02:15:00
10:35 PM,73.4,71.6,94,30.30,8.0,SE,5.8,-,N/A,,Clear,140,2013-07-14 02:35:00
10:55 PM,73.4,71.6,94,30.30,6.0,SE,5.8,-,N/A,,Clear,130,2013-07-14 02:55:00
11:15 PM,73.4,71.6,94,30.31,0.8,SE,5.8,-,N/A,,Overcast,140,2013-07-14 03:15:00
11:35 PM,73.4,71.6,94,30.31,1.2,SSE,5.8,-,N/A,,Overcast,150,2013-07-14 03:35:00
11:55 PM,73.4,71.6,94,30.31,8.0,South,8.1,-,N/A,,Partly Cloudy,170,2013-07-14 03:55:00